Starlink 32558

operational
NORAD ID: 62169 Int'l Des: 2024-225 Owner: SPXS Country: US Constellation: starlink
LEOCIRCULAR

About Starlink 32558

Description loading...

Live Position

Loading 3D Globe...

Upcoming Passes

Altitude History

Altitude vs Time

uPlot chart will show altitude changes over time

Two-Line Element Set

1 62169U 24225G 25303.90829713 .00007266 00000-0 61592-3 0 9998
2 62169 70.0002 131.7349 0002859 269.7345 90.3486 14.98341264 50437
Epoch: Oct 30, 2025 • Age: 14 hours

Current Status

Altitude 580.7 km
Velocity 7.57 km/s
Sub-Earth Point -27.58°S, 107.95°E
Launch Date Nov 30, 2024
Age 0.9 years
Type internet

Technical Details

Classification Payload
Mass 730.00 kg
Dry Mass 700.00 kg
Total Mass 730.00 kg
Length 0.30 m
Diameter 4.10 m
Span 29.00 m
Shape Box + pan
Manufacturer SPXS
Bus Type Starlink V2M
Phase Status In Orbit
Owner/State SPXS/US

Large Constellations

Loading constellations...